This is the latest recevied weather packets stored in our database for station/object KD8DLP-13. If no packets are shown the sender has not sent any weather packets the latest 10 day(s).
| Time | Temp. | Humidity | Pressure | Rain* | Wind** | Luminosity | Snow |
|---|---|---|---|---|---|---|---|
| 1777767665 | 7.22° C | 51% | 1017.1 hPa | 0 mm | - | 14 W/m² | - |
| 1777767361 | 7.78° C | 50% | 1017.2 hPa | 0 mm | - | 16 W/m² | - |
| 1777767058 | 7.78° C | 48% | 1017.3 hPa | 0 mm | - | 19 W/m² | - |
| 1777766755 | 7.78° C | 48% | 1017.2 hPa | 0 mm | - | 21 W/m² | - |
| 1777766452 | 8.33° C | 46% | 1017 hPa | 0 mm | - | 24 W/m² | - |
| 1777766149 | 8.33° C | 45% | 1017 hPa | 0 mm | - | 26 W/m² | - |
| 1777765847 | 8.33° C | 44% | 1017 hPa | 0 mm | - | 27 W/m² | - |
| 1777765543 | 8.33° C | 44% | 1017.2 hPa | 0 mm | - | 29 W/m² | - |
| 1777765241 | 8.89° C | 45% | 1017.2 hPa | 0 mm | - | 30 W/m² | - |
| 1777764941 | 8.89° C | 45% | 1017.1 hPa | 0 mm | - | 32 W/m² | - |
| 1777764638 | 8.89° C | 44% | 1017.2 hPa | 0 mm | - | 33 W/m² | - |
| 1777764334 | 8.89° C | 44% | 1017.1 hPa | 0 mm | - | 34 W/m² | - |
| 1777764032 | 8.89° C | 45% | 1017.2 hPa | 0 mm | - | 36 W/m² | - |
| 1777763728 | 8.89° C | 44% | 1017.3 hPa | 0 mm | - | 37 W/m² | - |
| 1777763426 | 9.44° C | 44% | 1017.3 hPa | 0 mm | - | 38 W/m² | - |
| 1777763124 | 9.44° C | 43% | 1017.6 hPa | 0 mm | - | 38 W/m² | - |
| 1777762822 | 9.44° C | 42% | 1017.3 hPa | 0 mm | - | 39 W/m² | - |
| 1777762517 | 9.44° C | 42% | 1017.3 hPa | 0 mm | - | 39 W/m² | - |
| 1777762215 | 9.44° C | 41% | 1017.4 hPa | 0 mm | - | 110 W/m² | - |
| 1777761911 | 10° C | 43% | 1017.4 hPa | 0 mm | - | 158 W/m² | - |
| 1777761608 | 10° C | 41% | 1017.4 hPa | 0 mm | - | 172 W/m² | - |
| 1777761306 | 10° C | 41% | 1017.5 hPa | 0 mm | - | 186 W/m² | - |
| 1777761004 | 10.56° C | 42% | 1017.5 hPa | 0 mm | - | 197 W/m² | - |
| 1777760701 | 10.56° C | 40% | 1017.4 hPa | 0 mm | - | 211 W/m² | - |
| 1777760397 | 11.67° C | 37% | 1017.7 hPa | 0 mm | - | 230 W/m² | - |
* Rain latest hour (hover to see other rain measurements)
** Current wind speed in m/s (hover to see current wind gust speed)